Regional Weather Roundup
Issued by NWS

Home | Current Version | Previous Version | Graphics & Text | Print | Product List | Glossary On
Versions: 1 2 3 4 5 6 7 8 9 10 11 12 13 14 15 16 17 18 19 20 21 22 23 24 25 26 27 28 29 30 31 32 33 34 35 36 37 38 39 40 41 42 43 44 45 46 47 48 49 50
000
ASUS45 KTFX 060119
RWRMT
MONTANA HOURLY WEATHER ROUNDUP
NATIONAL WEATHER SERVICE GREAT FALLS MT
619 PM MST THU MAR 5 2015

NOTE: "FAIR" INDICATES FEW OR NO CLOUDS BELOW 12000 FEET WITH NO
SIGNIFICANT WEATHER AND/OR OBSTRUCTIONS TO VISIBILITY.

* THESE STATIONS ARE NOT UNDER NWS QUALITY CONTROL. THEY DO NOT
   REPORT WEATHER SUCH AS PRECIPITATION OR FOG.

MTZ001>007-043-060200-
WEST OF THE DIVIDE
CITY           SKY/WX    TMP DP  RH WIND       PRES   REMARKS
KALISPELL      CLOUDY    37  18  46 W3        30.24F
MISSOULA       PTCLDY    45  12  26 SW3       30.25S
BUTTE          CLOUDY    41   9  27 NW6       30.21S
MULLAN PASS    CLOUDY    34  14  44 VRB3      30.24S
* ANACONDA     MOCLDY    39  16  39 N7         N/A   WCI  34
* ESSEX        N/A       38  17  42 S3         N/A
* EUREKA APT   CLOUDY    37  18  46 CALM      30.25S
* HAMILTON APT PTCLDY    50  12  22 NE2       30.25R
* LIBBY APT    CLOUDY    43  14  31 CALM      30.25R
* LINCOLN      N/A       45   8  22 SW6G17     N/A
* LOOKOUT PASS N/A       38  16  41 VRB1       N/A
* POLSON       N/A       42  14  32 S1         N/A
* RONAN APT    PTCLDY    45  28  51 S7         N/A
* SEELEY LAKE  N/A       46  10  23 W5G14      N/A
* THOMP F APT  CLOUDY    31  11  43 S3G8       N/A
$$

MTZ008-052>055-060200-
SOUTHWEST MONTANA
CITY           SKY/WX    TMP DP  RH WIND       PRES   REMARKS
BOZEMAN        MOCLDY    39  16  39 E3        30.19S
DILLON         CLOUDY    45   5  19 W17       30.21R
* W YELLOWSTON CLOUDY    29  13  51 SW6G16     N/A   WCI  23
* THREE FORKS  MOCLDY    45  12  26 SW5        N/A
* BOULDER HILL N/A       38   5  25 NW2        N/A
* MONIDA PASS  N/A       28  11  49 SE19       N/A   WCI  15
* RAYNOLDS PAS N/A       28   9  45 SE12       N/A   WCI  18
* WHITEHALL    N/A       50   4  15 NW6G14     N/A
* WISE RIVER   N/A       43   5  21 W12G24     N/A
$$

MTZ009>010-012-014-046-048-049-054-060200-
EAST SLOPES AND CENTRAL MONTANA
CITY           SKY/WX    TMP DP  RH WIND       PRES   REMARKS
CUT BANK       CLOUDY    41  16  36 W23G29    30.06S
GREAT FALLS    PTCLDY    43  10  26 SW16      30.10S
HELENA         CLOUDY    43  10  26 CALM      30.19R
MALMSTROM AFB  PTCLDY    45  10  24 SW18      30.11S
* CONRAD       CLOUDY    48  18  30 W8         N/A
* DEARBORN     N/A       45  14  28 N/A        N/A
* EAST GLACIER N/A       36  10  34 W34G44     N/A   WCI  22
* MONARCH      N/A       37  10  33 SW18G23    N/A   WCI  27
* PENDROY      N/A       43  18  37 W12        N/A
* ROGERS PASS  N/A       39   7  26 SE17G27    N/A   WCI  30
* SWEET GRASS  N/A       43  23  45 W8         N/A
* WHITE SULPH  N/A       40  13  33 SE2G14     N/A
$$

MTZ011-013-016-021-035-040-045-047-050-051-060200-
NORTH CENTRAL MONTANA
CITY           SKY/WX    TMP DP  RH WIND       PRES   REMARKS
HAVRE          CLOUDY    43  19  38 NW6       30.06S
LEWISTOWN      CLOUDY    39  25  57 SW14      30.10S WCI  31
* N BAR RANCH  MOCLDY    39  16  39 CALM      30.10S
* CHINOOK      CLOUDY    43  19  38 NW6       30.07R
* FORT BENTON  CLOUDY    46  10  23 SW13      30.10R
* CHESTER      N/A       45  18  34 NW5G10     N/A
* DENTON       N/A       45  19  35 W19G24     N/A
* GEYSER       N/A       41  16  36 SW20G27    N/A
* JUDITH GAP   N/A       41  15  35 NW7G12     N/A
* LOMA         N/A       51  14  23 W19G24     N/A
$$

MTZ017>020-022>027-061-062-060200-
NORTHEAST MONTANA
CITY           SKY/WX    TMP DP  RH WIND       PRES   REMARKS
GLASGOW        CLOUDY    41  18  39 W9        30.04R
GLENDIVE       PTCLDY    34  12  40 SW7       30.08S WCI  28
JORDAN         CLOUDY    37  19  48 CALM      30.07R
SIDNEY         PTCLDY    32  16  52 W5        30.07F WCI  27
WOLF POINT     CLOUDY    43  19  38 W5        30.03F
* BEAVER HILL  N/A       40  13  33 W12        N/A   WCI  33
* CIRCLE       N/A       40  20  45 N/A        N/A
* NAVAJO       N/A       39  21  48 NW13G20    N/A   WCI  31
* PLENTYWOOD A MOCLDY    37  21  52 W13       30.00R WCI  29
* POPLAR APT   CLOUDY    39  19  45 SW5       30.04S WCI  35
* SACO         N/A       45  18  34 SW8        N/A
$$

MTZ028>042-056>058-060200-
SOUTHCENTRAL AND SOUTHEAST MONTANA
CITY           SKY/WX    TMP DP  RH WIND       PRES   REMARKS
BAKER          CLEAR     36  16  44 W7        30.08R WCI  30
BILLINGS       CLOUDY    43  14  31 SW20      30.13R
LIVINGSTON     CLOUDY    46  12  25 W18       30.15S
MILES CITY     HAZE      39  12  33 W7        30.09R WCI  34
* BIG TIMBER A CLOUDY    43  12  28 W12       30.15R
* FORSYTH APT  CLOUDY    46  12  25 W3        30.10S
* LAUREL APT   CLOUDY    43  16  34 SW10       N/A
* ROUNDUP APT  CLOUDY    46   9  22 N/A        N/A
* ALZADA       N/A       36  18  48 W6         N/A   WCI  31
* HYSHAM       N/A       46   6  19 W1         N/A
* LAME DEER    N/A       41  12  30 W4         N/A
* REED POINT   N/A       49  14  24 W10G15     N/A
* ROSCOE HILL  N/A       41   8  25 W2         N/A
$$

REGIONAL REPORTS...DAKOTAS
CITY           SKY/WX    TMP DP  RH WIND       PRES   REMARKS
WILLISTON      MOCLDY    34  21  59 SW8       30.01F WCI  27
DICKINSON      PTCLDY    30  10  43 NW9       30.03R WCI  22
BEACH          FAIR      32  14  47 W6        30.07S WCI  26
CROSBY         CLEAR     28  23  81 W9        29.99R WCI  19
TIOGA          CLEAR     25  18  75 SW10      30.01F WCI  15
WATFORD CITY   CLEAR     32  18  56 SW7       30.01S WCI  25
BISMARCK       CLEAR     32  12  43 W7        30.07R WCI  25
GRAND FORKS    PTCLDY    19  10  68 S13       30.09F WCI   6
FARGO          CLEAR     19   9  65 S15       30.18F WCI   5
BUFFALO SD     CLEAR     36  12  37 NW13      30.03R WCI  27
RAPID CITY     CLEAR     34  18  52 N13       30.11S WCI  25
$$

REGIONAL REPORTS...WYOMING/IDAHO/WASHINGTON
CITY           SKY/WX    TMP DP  RH WIND       PRES   REMARKS
GILLETTE       PTCLDY    30  19  64 W8        30.14R WCI  22
SHERIDAN       MOCLDY    32  21  64 SW7       30.14S WCI  25
CODY           CLOUDY    39  19  45 NW5       30.17R WCI  35
YELLOWSTONE LA PTCLDY    25   9  50 CALM      30.29S
SALMON         CLOUDY    45  12  26 CALM      30.26S
MULLAN PASS    CLOUDY    34  14  44 VRB3      30.24S
SAND POINT     CLOUDY    46  19  34 CALM      30.28S
SPOKANE        CLOUDY    48  21  34 SW7       30.27F
$$

REGIONAL REPORTS...ALBERTA
CITY           SKY/WX    TMP DP  RH WIND       PRES   REMARKS
CALGARY        CLOUDY    41  19  41 SE6       29.99R
LETHBRIDGE     MOCLDY    46  16  30 W22G38    30.02S
MEDICINE HAT   CLOUDY    39  27  62 W5        30.04S WCI  35
EDMONTON       MOCLDY    34  25  70 S10       29.96S WCI  26
WATERTON GATE  N/A       39  16  39 SW24G35    N/A   WCI  28
CARDSTON       N/A       43  19  38 W15G22     N/A
MILK RIVER     N/A       41  27  58 W8         N/A
$$

REGIONAL REPORTS...SASKATCHEWAN
CITY           SKY/WX    TMP DP  RH WIND       PRES   REMARKS
SWIFT CURRENT  PTCLDY    30  23  75 NW6       29.99S WCI  24
REGINA         FAIR      21  16  81 NW9       29.96S WCI  11
ASSINIBOIA     N/A       32  21  64 W14        N/A   WCI  22
CORONACH       N/A       34  25  70 NW7        N/A   WCI  28

$$




USA.gov is the U.S. government's official web portal to all federal, state and local government web resources and services.